Temp
-3 -3 -3 -3 -3 -3 -2 -2 -4 -1 -0 -3 -4 -5 -3 -2 -2 -1 -1 -2 -2 -2 -2 -1 -0 -1 -2 -3 -2 -1 -0 2 4 4 6 5 7 7 5 5 5 2 1 2
-3 -3 -4 -4 -3 -4 -3 -3 -3 -1 -1 -5 -5 -4 -3 -1 -1 -1 -0 -1 -1 -1 -2 -2 -2 -1 -1 -1 -1 -2 -2 0 4 4 5 5 6 6 7 4 4 2 5 3
-4 -3 -3 -4 -4 -4 -3 -3 -5 -2 -3 -3 -5 -6 -4 -2 -1 -1 -2 -2 -1 -2 -2 -1 -2 -2 -1 -2 -1 -1 -1 -1 -1 1 1 1 4 4 5 7 6 4 3 3
-4 -4 -4 -4 -4 -4 -3 -4 -5 -5 -6 -4 -6 -6 -5 -3 -3 -2 -2 -2 -4 -4 -3 -3 -3 -2 -2 -2 -1 -1 -2 -3 -2 -1 -1 0 0 2 3 4 5 6 5 3
-4 -4 -4 -4 -4 -4 -4 -4 -4 -4 -5 -5 -6 -5 -4 -3 -3 -3 -3 -4 -3 -7 -8 -7 -6 -5 -5 -4 -3 -3 -3 -6 -3 -2 1 1 -0 -3 -2 -3 -4 -1 -0 -3
-4 -4 -4 -4 -4 -4 -5 -5 -5 -5 -4 -6 -6 -5 -4 -3 -4 -3 -3 -3 -5 -4 -4 -4 -4 -4 -4 -5 -7 -5 -5 -9 -7 -5 -1 0 -0 -6 -4 -6 -8 -6 -7 -7
-4 -4 -4 -4 -4 -5 -5 -5 -5 -5 -5 -5 -4 -4 -4 -4 -4 -4 -3 -3 -4 -3 -3 -3 -3 -4 -6 -6 -6 -6 -8 -6 -4 -5 -3 -5 -7 -7 -7 -8 -8 -8 -8 -8
-4 -5 -4 -5 -5 -5 -5 -5 -5 -6 -7 -5 -4 -5 -5 -5 -4 -5 -4 -3 -4 -4 -4 -6 -6 -5 -4 -4 -5 -6 -6 -6 -9 -7 -4 -6 -8 -9 -9 -8 -9 -9 -9 -9
-4 -5 -5 -5 -5 -5 -5 -5 -5 -6 -6 -7 -5 -6 -5 -6 -6 -5 -4 -4 -4 -4 -5 -6 -8 -7 -5 -5 -4 -4 -4 -6 -5 -8 -8 -4 -9 -10 -10 -9 -8 -10 -10 -10
-5 -5 -5 -5 -5 -5 -5 -5 -6 -6 -6 -5 -6 -6 -6 -6 -7 -7 -6 -6 -5 -5 -6 -6 -7 -8 -8 -8 -8 -8 -8 -8 -6 -6 -6 -8 -11 -11 -10 -8 -10 -10 -11 -11
-5 -5 -5 -5 -5 -5 -5 -5 -6 -6 -6 -6 -6 -6 -6 -6 -6 -6 -5 -6 -6 -7 -10 -10 -10 -11 -10 -9 -11 -11 -12 -12 -9 -7 -9 -9 -12 -10 -11 -12 -11 -12 -12 -12
-5 -5 -5 -5 -5 -5 -5 -6 -6 -6 -7 -6 -6 -6 -6 -6 -6 -6 -6 -6 -7 -7 -9 -11 -12 -8 -10 -10 -9 -15 -13 -16 -14 -14 -12 -13 -13 -13 -13 -13 -13 -13 -13 -13
-5 -5 -5 -6 -6 -6 -5 -6 -6 -7 -7 -7 -6 -6 -6 -6 -6 -6 -6 -6 -6 -7 -7 -9 -10 -7 -8 -10 -12 -15 -15 -16 -15 -13 -14 -14 -14 -14 -14 -14 -14 -13 -13 -13
-5 -6 -6 -6 -6 -6 -6 -6 -7 -7 -8 -7 -6 -6 -6 -7 -7 -6 -7 -7 -7 -8 -8 -8 -11 -10 -11 -14 -14 -14 -16 -16 -18 -17 -15 -14 -13 -14 -14 -14 -14 -14 -14 -14
-5 -6 -6 -6 -6 -6 -6 -7 -7 -7 -7 -8 -7 -7 -7 -7 -6 -7 -7 -7 -7 -8 -9 -10 -10 -11 -13 -15 -15 -17 -16 -19 -19 -17 -15 -16 -14 -14 -15 -14 -15 -14 -14 -14
-6 -6 -6 -6 -6 -6 -6 -7 -7 -7 -7 -8 -10 -7 -7 -7 -7 -8 -8 -8 -8 -9 -11 -12 -13 -13 -14 -15 -16 -16 -16 -16 -16 -15 -15 -15 -15 -14 -15 -15 -15 -14 -15 -14
-5 -6 -6 -6 -6 -6 -7 -6 -7 -7 -8 -8 -9 -8 -8 -7 -8 -8 -8 -8 -9 -10 -11 -13 -14 -15 -15 -18 -18 -16 -16 -16 -15 -15 -15 -15 -15 -16 -15 -15 -15 -15 -15 -15
-6 -6 -6 -7 -6 -7 -7 -7 -7 -7 -8 -8 -15 -11 -8 -9 -8 -9 -9 -9 -10 -11 -12 -13 -15 -15 -15 -17 -17 -16 -16 -16 -15 -15 -16 -16 -16 -15 -15 -15 -15 -15 -15 -15
-6 -6 -6 -7 -7 -7 -7 -7 -8 -8 -8 -9 -12 -14 -14 -10 -10 -9 -9 -9 -12 -12 -15 -14 -14 -16 -18 -17 -16 -16 -16 -16 -16 -16 -16 -16 -16 -16 -16 -16 -16 -16 -15 -15
-6 -6 -7 -7 -8 -7 -7 -8 -8 -8 -9 -10 -12 -12 -14 -11 -11 -10 -10 -11 -12 -16 -15 -14 -19 -20 -16 -16 -16 -16 -16 -16 -16 -17 -16 -16 -16 -16 -16 -16 -16 -16 -16 -16
-7 -7 -7 -8 -7 -8 -8 -9 -11 -11 -13 -13 -13 -13 -15 -12 -14 -12 -11 -13 -13 -15 -13 -15 -21 -22 -16 -16 -16 -17 -17 -17 -17 -17 -17 -17 -17 -17 -17 -17 -17 -16 -16 -16
-8 -8 -8 -8 -8 -8 -12 -16 -12 -13 -14 -13 -14 -13 -13 -12 -12 -12 -12 -13 -14 -15 -13 -16 -20 -18 -16 -17 -17 -17 -17 -17 -17 -17 -17 -17 -17 -17 -17 -17 -17 -16 -16 -16
-8 -8 -8 -9 -10 -13 -14 -13 -14 -14 -13 -14 -14 -15 -13 -12 -12 -13 -14 -15 -15 -13 -17 -17 -18 -16 -17 -17 -17 -17 -17 -17 -17 -17 -17 -17 -17 -17 -17 -17 -17 -17 -16 -16
-8 -8 -14 -15 -16 -14 -13 -14 -13 -13 -14 -14 -15 -14 -13 -14 -14 -14 -15 -14 -15 -18 -19 -19 -18 -17 -17 -17 -18 -18 -18 -18 -18 -18 -17 -17 -17 -17 -17 -17 -17 -17 -17 -16
-10 -10 -15 -14 -13 -14 -15 -15 -15 -15 -15 -15 -14 -14 -15 -16 -15 -14 -14 -16 -17 -16 -16 -16 -16 -17 -17 -17 -18 -18 -18 -18 -18 -18 -18 -17 -17 -17 -17 -17 -17 -17 -17 -17
-12 -14 -13 -13 -14 -15 -16 -16 -16 -16 -15 -14 -15 -16 -17 -17 -16 -16 -16 -17 -17 -16 -16 -17 -17 -18 -18 -18 -18 -18 -18 -18 -18 -18 -18 -18 -18 -18 -17 -18 -17 -17 -17 -17
-13 -15 -16 -15 -15 -16 -16 -16 -16 -15 -15 -18 -16 -18 -17 -16 -17 -17 -16 -17 -17 -17 -17 -18 -18 -18 -18 -18 -18 -19 -19 -19 -19 -18 -18 -18 -18 -18 -18 -17 -17 -17 -17 -17
Height
1539 1534 1530 1523 1518 1512 1506 1501 1499 1494 1489 1489 1492 1498 1493 1490 1484 1481 1480 1479 1477 1475 1472 1467 1463 1462 1463 1465 1462 1455 1450 1434 1423 1423 1418 1419 1418 1420 1430 1438 1442 1456 1465 1462
1539 1534 1529 1524 1520 1514 1509 1505 1501 1497 1493 1499 1500 1496 1492 1488 1484 1481 1479 1477 1477 1475 1473 1473 1468 1466 1464 1464 1462 1461 1457 1442 1423 1421 1423 1421 1420 1421 1419 1431 1436 1449 1443 1452
1538 1533 1529 1525 1521 1516 1512 1508 1506 1500 1498 1499 1501 1500 1494 1489 1485 1482 1481 1480 1476 1476 1473 1472 1471 1467 1464 1463 1460 1460 1457 1453 1449 1437 1443 1440 1426 1425 1423 1418 1424 1431 1439 1439
1538 1534 1530 1526 1521 1517 1514 1512 1510 1508 1505 1499 1501 1500 1495 1490 1487 1485 1482 1480 1481 1482 1479 1475 1472 1470 1467 1463 1460 1459 1460 1458 1452 1450 1447 1443 1438 1430 1426 1424 1419 1420 1422 1433
1538 1534 1530 1526 1521 1517 1515 1515 1513 1509 1504 1502 1501 1497 1493 1489 1488 1489 1484 1483 1480 1483 1488 1483 1481 1476 1473 1470 1463 1463 1463 1468 1456 1448 1441 1438 1441 1448 1446 1447 1451 1439 1442 1454
1537 1533 1529 1525 1522 1517 1515 1514 1513 1510 1503 1501 1501 1496 1493 1490 1489 1483 1480 1480 1480 1478 1476 1475 1472 1470 1467 1467 1468 1467 1468 1473 1471 1459 1442 1436 1440 1463 1456 1467 1473 1467 1469 1475
1536 1532 1528 1524 1522 1518 1515 1513 1511 1509 1503 1501 1497 1494 1492 1488 1486 1484 1479 1478 1478 1477 1474 1470 1465 1462 1460 1462 1463 1465 1470 1466 1463 1461 1448 1458 1466 1469 1466 1471 1481 1481 1476 1473
1534 1529 1525 1522 1519 1516 1512 1510 1509 1507 1503 1498 1493 1492 1490 1485 1481 1479 1476 1476 1476 1475 1473 1472 1470 1465 1461 1459 1460 1462 1464 1466 1477 1471 1456 1468 1474 1481 1480 1476 1482 1484 1479 1477
1532 1527 1523 1520 1517 1514 1509 1508 1506 1505 1502 1497 1494 1491 1488 1483 1478 1478 1476 1476 1475 1475 1474 1476 1483 1477 1470 1465 1462 1461 1461 1458 1461 1472 1473 1452 1484 1485 1481 1481 1482 1487 1484 1480
1530 1525 1521 1517 1514 1510 1507 1505 1504 1503 1500 1495 1494 1492 1490 1487 1483 1482 1479 1478 1476 1475 1475 1476 1480 1483 1475 1477 1477 1476 1472 1470 1460 1462 1465 1479 1488 1482 1478 1480 1495 1489 1486 1485
1527 1522 1518 1514 1511 1507 1505 1503 1502 1501 1498 1494 1493 1491 1490 1488 1486 1485 1482 1479 1478 1478 1486 1487 1486 1488 1482 1481 1489 1490 1493 1493 1482 1472 1479 1482 1490 1483 1488 1499 1495 1493 1490 1486
1523 1519 1515 1511 1509 1505 1502 1501 1499 1498 1497 1494 1491 1489 1489 1488 1487 1485 1483 1483 1482 1481 1482 1486 1487 1480 1481 1483 1481 1496 1498 1505 1502 1504 1501 1502 1500 1499 1499 1496 1493 1491 1489 1485
1520 1516 1512 1509 1506 1503 1500 1498 1497 1496 1494 1490 1489 1488 1489 1488 1486 1485 1485 1482 1482 1481 1481 1481 1482 1477 1480 1485 1494 1500 1502 1502 1503 1502 1504 1503 1502 1500 1499 1497 1494 1491 1488 1485
1515 1512 1509 1505 1503 1500 1498 1496 1494 1493 1493 1491 1488 1487 1487 1486 1485 1484 1483 1482 1480 1480 1480 1480 1481 1483 1487 1495 1496 1500 1507 1504 1508 1507 1504 1501 1501 1500 1499 1496 1494 1491 1489 1487
1510 1507 1505 1502 1500 1497 1495 1494 1492 1491 1494 1490 1486 1486 1485 1484 1483 1482 1481 1480 1479 1479 1479 1481 1484 1487 1491 1498 1501 1508 1508 1510 1512 1510 1506 1506 1502 1500 1498 1496 1494 1491 1488 1485
1506 1502 1500 1498 1496 1495 1494 1492 1491 1490 1489 1489 1486 1484 1484 1483 1482 1481 1481 1479 1479 1480 1482 1486 1489 1492 1493 1500 1506 1510 1509 1508 1508 1508 1506 1504 1503 1501 1499 1496 1493 1491 1489 1486
1500 1497 1495 1494 1492 1492 1492 1492 1490 1489 1488 1488 1485 1483 1483 1482 1482 1481 1481 1481 1481 1482 1486 1490 1493 1494 1495 1504 1514 1510 1508 1507 1507 1507 1505 1504 1503 1502 1499 1497 1494 1492 1489 1486
1495 1491 1488 1488 1488 1487 1488 1488 1487 1486 1487 1486 1487 1484 1483 1483 1482 1482 1481 1481 1482 1485 1488 1493 1496 1499 1502 1511 1511 1510 1508 1507 1507 1505 1504 1503 1501 1500 1497 1495 1492 1490 1486 1483
1489 1485 1483 1484 1485 1485 1485 1484 1485 1485 1488 1485 1487 1491 1492 1484 1483 1482 1481 1481 1485 1488 1491 1496 1499 1506 1512 1513 1511 1510 1509 1508 1506 1504 1503 1502 1500 1497 1495 1492 1490 1488 1485 1482
1483 1482 1483 1482 1483 1483 1485 1484 1484 1484 1486 1487 1490 1491 1490 1488 1484 1483 1483 1482 1486 1496 1498 1497 1505 1516 1513 1513 1512 1510 1509 1507 1506 1503 1501 1500 1498 1496 1494 1492 1490 1487 1485 1482
1483 1482 1482 1483 1483 1483 1483 1484 1486 1488 1491 1492 1493 1493 1492 1489 1489 1486 1485 1485 1488 1498 1497 1501 1517 1522 1514 1513 1512 1510 1508 1507 1505 1503 1501 1500 1498 1495 1493 1490 1488 1486 1483 1480
1483 1483 1482 1482 1482 1483 1485 1493 1492 1493 1498 1496 1495 1494 1493 1490 1488 1487 1487 1488 1490 1500 1497 1504 1522 1517 1514 1513 1511 1510 1508 1506 1504 1502 1500 1498 1496 1494 1492 1489 1487 1484 1482 1479
1480 1481 1482 1484 1487 1493 1498 1499 1500 1499 1499 1498 1496 1494 1493 1490 1490 1489 1489 1493 1499 1496 1506 1514 1518 1515 1514 1513 1511 1509 1507 1505 1503 1501 1499 1497 1495 1493 1490 1488 1486 1484 1481 1478
1481 1483 1491 1496 1504 1505 1506 1506 1504 1503 1500 1498 1496 1495 1494 1492 1491 1492 1494 1497 1498 1511 1521 1521 1516 1515 1514 1512 1510 1508 1506 1504 1502 1500 1498 1496 1494 1492 1490 1488 1486 1483 1480 1478
1486 1491 1505 1507 1509 1509 1509 1507 1505 1503 1500 1498 1496 1496 1496 1495 1495 1497 1498 1504 1511 1511 1516 1516 1516 1515 1513 1511 1510 1508 1506 1503 1502 1500 1498 1496 1494 1492 1490 1488 1485 1483 1480 1478
1498 1506 1510 1511 1510 1511 1509 1507 1505 1502 1500 1498 1498 1498 1500 1503 1504 1505 1510 1514 1516 1518 1518 1517 1516 1514 1512 1510 1509 1506 1504 1502 1501 1499 1497 1495 1494 1492 1490 1488 1486 1483 1480 1478
1511 1519 1518 1516 1516 1515 1513 1510 1506 1503 1501 1501 1501 1507 1510 1508 1511 1515 1517 1521 1522 1520 1518 1517 1515 1513 1511 1509 1507 1504 1502 1500 1499 1497 1496 1495 1493 1492 1490 1488 1486 1483 1481 1479
Wind_Speed
22 25 27 29 31 31 31 20 4 19 23 10 4 1 3 5 9 11 3 4 4 4 5 4 6 7 5 13 13 8 7 5 9 10 3 6 7 12 7 4 4 2 4 4
22 24 28 29 28 30 30 16 7 14 15 3 3 5 5 7 5 4 3 3 2 3 3 4 2 4 4 13 7 9 9 4 3 3 2 2 5 4 11 4 3 6 7 4
23 26 25 27 27 27 24 9 4 8 7 4 3 4 4 5 11 2 6 3 5 7 4 2 5 8 4 19 14 3 3 4 5 5 5 9 4 3 5 14 9 6 6 5
24 25 25 25 25 26 20 5 3 3 3 4 5 2 4 7 4 6 5 2 1 1 3 7 1 3 8 7 7 4 2 3 6 11 13 7 8 10 8 9 11 11 9 7
23 24 24 23 23 25 15 7 5 5 10 10 5 4 3 6 3 2 5 2 4 4 4 7 5 3 1 5 4 5 2 3 8 6 8 4 3 14 15 6 6 6 11 8
23 25 22 24 24 24 8 8 10 7 7 3 2 3 4 11 13 11 13 5 1 3 4 6 16 19 18 11 3 2 4 0 3 5 5 6 4 10 2 5 11 5 6 5
23 24 21 21 20 20 17 11 8 5 4 2 7 9 16 12 14 10 10 2 1 4 16 20 15 13 14 11 9 11 4 1 3 4 5 2 5 9 16 17 11 12 7 10
23 23 20 22 18 19 17 13 9 4 3 5 14 7 8 19 15 5 5 8 5 11 8 4 5 4 5 4 1 4 6 2 2 2 2 4 3 7 6 6 7 13 11 13
23 23 21 19 19 18 16 13 9 6 6 3 7 9 13 11 3 3 2 3 6 4 1 2 1 2 2 2 3 2 4 9 4 1 3 3 5 12 8 8 1 15 16 16
23 22 20 18 17 18 16 11 8 8 9 6 9 2 6 7 5 2 3 8 4 6 2 0 1 3 3 2 2 5 4 4 1 2 2 2 10 16 3 2 3 17 16 16
23 22 19 17 15 18 14 10 7 7 5 14 5 7 4 5 5 1 6 4 4 3 3 1 2 1 2 3 2 3 2 3 3 2 3 1 24 5 5 6 8 12 15 16
22 22 18 16 14 17 12 10 9 8 7 9 11 5 1 5 6 5 4 2 2 1 2 0 1 2 2 3 1 3 2 1 1 2 2 6 11 13 11 12 12 14 15 17
22 21 17 14 14 13 11 9 7 7 5 9 4 2 1 3 5 5 3 2 3 2 3 3 2 1 3 1 1 3 3 6 2 1 3 3 10 11 15 14 14 13 14 15
21 21 16 14 13 12 10 9 9 4 3 3 2 2 2 4 6 6 4 6 6 5 2 2 0 2 7 2 2 3 2 5 2 1 4 4 5 14 15 17 15 15 14 14
21 21 15 15 12 11 10 9 5 1 2 3 4 5 3 4 8 5 6 6 4 1 3 3 2 4 3 3 3 3 5 2 2 2 2 4 9 13 14 17 17 16 18 19
21 21 19 14 14 11 10 4 5 6 6 3 2 2 4 6 3 3 6 5 5 5 4 4 4 5 4 2 2 2 8 4 3 3 9 8 6 7 13 15 16 15 16 14
21 21 19 13 14 11 6 4 4 7 5 2 4 1 2 8 2 2 2 6 5 4 4 4 3 6 6 2 2 10 10 8 2 8 8 2 6 8 12 12 11 12 11 12
22 22 19 10 12 9 7 9 6 5 3 2 1 2 1 9 4 3 2 2 3 6 4 4 4 4 5 3 5 9 10 8 2 9 6 6 9 10 12 11 12 14 14 15
24 20 8 9 9 6 5 6 4 2 1 2 3 2 2 9 4 3 1 2 3 3 4 3 3 2 3 2 8 9 10 7 11 11 7 9 10 12 14 13 13 16 17 16
19 8 2 3 2 3 4 1 0 0 3 4 4 4 2 6 5 3 6 3 2 2 1 4 3 0 2 6 7 7 8 9 11 10 12 14 13 14 15 14 13 14 15 14
7 2 0 1 3 2 2 2 4 5 4 5 4 4 3 4 1 2 4 1 1 3 2 2 2 2 3 8 8 9 7 9 10 8 8 10 10 13 15 13 13 15 14 15
7 7 6 1 1 2 4 1 3 4 2 6 5 6 4 4 4 3 5 2 2 2 2 3 2 2 5 9 10 10 8 8 10 10 11 11 9 12 13 12 13 14 14 15
3 2 1 4 6 8 5 5 3 3 4 6 9 4 4 4 4 2 2 4 2 3 3 2 2 4 8 10 10 10 10 9 10 9 10 10 9 11 11 12 12 13 13 14
2 4 6 4 4 3 3 3 3 5 7 14 9 4 3 3 3 3 3 2 3 3 3 1 2 6 10 11 10 11 12 11 10 10 10 10 11 11 10 11 12 14 13 13
6 7 5 4 5 9 7 10 6 8 11 8 4 1 3 4 3 4 3 4 4 3 2 1 6 10 11 11 11 12 12 12 10 11 10 10 11 11 10 11 13 12 11 11
6 10 5 8 5 10 11 13 12 13 10 3 3 2 3 4 2 4 4 3 3 2 4 7 13 12 9 10 13 14 12 12 12 11 10 9 10 11 10 11 12 12 12 12
6 7 17 7 5 6 11 13 18 10 5 2 4 5 3 2 3 3 3 3 3 10 8 13 10 10 13 13 16 14 11 11 10 10 8 7 8 9 9 9 12 12 12 11
Wind_Direction
360 359 360 359 357 355 0 356 349 351 7 45 27 127 243 301 305 346 341 18 345 348 333 325 344 18 33 18 351 346 27 301 228 204 215 195 208 188 172 166 183 170 133 276
357 358 358 359 353 353 355 343 310 350 8 50 1 322 299 283 303 316 315 313 191 269 295 314 20 340 352 356 9 347 3 328 243 162 88 357 214 200 204 112 108 189 169 244
360 358 358 354 349 350 352 341 347 338 17 73 59 336 292 312 314 306 340 347 10 340 327 301 314 337 337 334 324 31 5 292 7 12 13 330 278 336 266 213 219 172 209 157
3 355 353 351 348 349 357 350 328 323 307 326 336 260 276 299 341 344 324 296 61 286 314 318 12 321 323 321 356 16 39 269 331 312 317 296 294 304 280 314 247 206 193 145
352 351 355 349 348 350 0 342 344 315 286 299 319 319 289 301 349 313 286 198 297 162 182 195 256 287 182 258 324 21 346 290 324 278 240 319 336 28 345 32 347 343 340 87
348 351 353 354 354 349 355 331 321 298 281 293 296 274 279 312 322 303 252 279 230 291 293 255 274 275 263 247 219 11 304 223 347 260 355 312 217 13 357 99 31 336 64 346
344 349 349 345 344 336 338 323 303 291 278 255 290 298 300 298 306 272 282 351 65 301 313 305 293 279 265 244 253 201 226 188 260 294 335 250 74 29 75 84 40 23 27 14
339 345 344 342 340 334 336 328 308 263 274 271 297 323 298 297 290 294 269 269 271 308 316 347 337 340 2 21 142 183 198 204 279 202 257 118 42 18 356 8 51 8 2 1
336 341 339 340 336 330 330 325 303 277 275 265 294 301 305 297 244 314 279 343 334 346 349 55 56 286 296 312 328 148 344 221 195 12 190 348 35 335 321 319 145 359 360 360
332 337 336 335 336 326 331 323 323 304 288 289 333 318 333 359 352 346 342 340 348 9 41 296 222 277 190 325 19 335 340 347 312 279 78 106 355 327 332 191 346 343 352 357
328 333 332 332 334 324 329 318 302 293 275 293 294 321 339 347 4 326 318 336 5 13 47 102 271 147 263 81 41 4 44 345 24 338 66 229 353 26 58 336 341 354 350 351
329 329 328 326 330 324 326 317 309 298 262 273 296 313 279 354 345 320 316 302 273 317 85 147 271 300 23 171 245 351 23 159 94 58 96 44 39 53 26 12 358 353 349 348
323 326 324 319 323 323 320 310 304 312 280 295 280 239 157 332 348 350 309 309 319 320 339 173 245 311 332 107 98 112 21 12 94 109 3 331 51 30 22 13 4 358 353 350
324 321 320 310 316 319 317 306 303 295 262 278 271 265 286 328 336 346 339 306 295 278 271 243 103 62 28 57 78 81 347 348 342 318 328 108 293 8 2 359 358 358 355 354
315 317 313 306 302 317 317 303 281 332 303 268 280 294 242 323 332 329 340 328 330 21 62 44 47 72 84 59 70 34 356 207 98 215 343 292 305 341 348 348 352 356 348 344
311 315 310 300 291 300 315 279 246 292 298 278 321 247 223 338 330 356 4 26 51 71 69 61 66 43 94 86 81 325 9 14 22 316 327 312 350 336 346 343 345 348 337 339
309 311 303 291 273 281 273 263 285 310 288 252 304 275 2 1 33 4 24 47 65 69 85 63 65 29 52 72 76 342 1 356 67 0 349 15 349 338 346 342 341 344 342 341
312 304 296 276 258 264 260 262 274 320 253 230 87 286 33 13 3 1 37 88 81 50 93 77 69 40 58 57 334 1 8 9 355 354 357 336 333 334 343 345 344 347 353 353
312 310 292 245 248 247 229 255 262 284 270 127 72 95 277 351 10 322 293 111 64 64 75 66 84 16 48 282 347 3 9 1 337 344 345 346 346 345 348 346 346 350 352 355
322 313 241 212 188 232 265 249 231 99 44 48 76 348 302 342 343 331 358 61 91 66 326 96 61 335 356 17 4 352 344 335 340 346 346 342 345 344 343 347 345 346 349 351
339 329 305 297 282 207 172 81 47 6 43 22 5 5 311 351 355 296 19 120 100 78 77 91 23 349 348 359 351 345 337 329 336 332 323 321 332 329 334 340 343 345 347 349
314 299 301 307 118 84 78 3 26 42 36 356 349 328 307 310 320 340 4 90 45 106 91 76 44 262 3 353 346 344 339 336 332 335 325 326 330 326 336 338 338 343 345 344
353 67 86 22 9 47 49 1 358 13 356 359 334 323 329 327 349 27 39 67 69 101 45 77 204 359 357 349 348 347 346 335 336 342 342 343 341 340 339 340 341 342 344 347
47 35 29 58 5 46 24 341 327 319 331 332 326 306 339 353 9 6 75 45 52 56 50 283 266 352 350 348 348 344 346 346 346 348 350 350 350 354 347 345 342 344 348 354
53 35 40 56 70 41 15 9 350 335 324 331 328 327 13 13 42 17 39 40 57 48 39 26 9 345 339 335 344 346 345 345 342 343 345 348 353 354 357 358 355 350 348 350
53 42 27 17 45 8 6 359 347 357 350 353 12 38 54 41 15 45 31 59 44 31 346 353 343 341 346 336 332 331 330 326 329 331 333 339 347 353 359 1 358 359 356 355
49 43 29 42 30 351 352 354 353 351 360 37 32 47 11 351 44 43 24 36 358 329 341 333 337 334 337 334 331 334 332 328 326 327 330 338 343 347 347 352 3 2 360 357